Weather History for KROW - March, 2013

Change the Weather History Date:

Friday, March 1, 2013

  Actual Average Record
Temperature  
Mean Temperature 46 °F 49 °F  
Max Temperature 63 °F 64 °F 86 °F (2006)
Min Temperature 28 °F 34 °F 2 °F (1922)
Degree Days  
Heating Degree Days 19 16  
Month to date heating degree days 19 16  
Since 1 July heating degree days 2473 2723  
Cooling Degree Days 0 0  
Month to date cooling degree days 0 0  
Year to date cooling degree days 0 0  
Moisture  
Dew Point 8 °F    
Average Humidity 25    
Maximum Humidity 40    
Minimum Humidity 10    
Precipitation  
Precipitation 0.00 in 0.01 in 0.71 in (1934)
Month to date precipitation 0.00 0.01  
Year to date precipitation 0.44 0.81  
Sea Level Pressure  
Sea Level Pressure 30.21 in    
Wind  
Wind Speed 8 mph (North)    
Max Wind Speed 20 mph    
Max Gust Speed 28 mph    
Visibility 10 miles    
Events      
T = Trace of Precipitation, MM = Missing Value Source: NWS Daily Summary

Daily Weather History Graph

Daily Weather History Graph

Search for Another Location

Airport or City:

Trip Planner

Search our weather history database for the weather conditions in past years. The results will help you decide how hot, cold, wet, or windy it might be!

Date:

Astronomy

Mar. 01, 2013 Rise Set
Actual Time 6:25 AM MST 5:55 PM MST
Civil Twilight 6:01 AM MST 6:20 PM MST
Nautical Twilight 5:32 AM MST 6:48 PM MST
Astronomical Twilight 5:03 AM MST 7:17 PM MST
Moon 10:14 PM MST (3/1) 8:29 AM MST (3/1)
Length of Visible Light 12h 19m
Length of Day
11h 29m
Waning Gibbous, 83% of the Moon is Illuminated
Mar 1
Waning Gibbous
Mar 4
Last Quarter
Mar 11
New
Mar 19
First Quarter
Mar 27
Full

Hourly Weather History & Observations

Time (MST) Temp. Windchill Dew Point Humidity Pressure Visibility Wind Dir Wind Speed Gust Speed Precip Events Conditions
12:51 AM 34.0 °F 28.8 °F 7.0 °F 32% 30.17 in 10.0 mi Variable 5.8 mph - N/A   Clear
1:51 AM 30.9 °F 27.5 °F 6.1 °F 35% 30.17 in 10.0 mi WNW 3.5 mph - N/A   Clear
2:51 AM 30.9 °F 27.5 °F 3.9 °F 32% 30.15 in 10.0 mi WSW 3.5 mph - N/A   Clear
3:51 AM 43.0 °F 37.7 °F 9.0 °F 25% 30.15 in 10.0 mi NNW 9.2 mph - N/A   Clear
4:51 AM 43.0 °F 35.7 °F 9.0 °F 25% 30.16 in 10.0 mi NW 15.0 mph 21.9 mph N/A   Clear
5:51 AM 42.1 °F 34.2 °F 10.0 °F 27% 30.19 in 10.0 mi NW 16.1 mph - N/A   Clear
6:51 AM 39.0 °F 32.3 °F 10.9 °F 32% 30.24 in 10.0 mi North 10.4 mph - N/A   Clear
7:51 AM 37.9 °F 31.5 °F 15.1 °F 39% 30.29 in 10.0 mi NE 9.2 mph - N/A   Clear
8:51 AM 45.0 °F 38.5 °F 16.0 °F 31% 30.31 in 10.0 mi North 13.8 mph - N/A   Clear
9:51 AM 53.1 °F - 14.0 °F 21% 30.28 in 10.0 mi North 6.9 mph - N/A   Clear
10:51 AM 57.0 °F - 10.9 °F 16% 30.27 in 10.0 mi North 19.6 mph - N/A   Clear
11:51 AM 59.0 °F - 10.9 °F 15% 30.26 in 10.0 mi NNE 13.8 mph - N/A   Clear
12:51 PM 61.0 °F - 9.0 °F 13% 30.22 in 10.0 mi NNE 5.8 mph 19.6 mph N/A   Clear
1:51 PM 61.0 °F - 5.0 °F 11% 30.21 in 10.0 mi NNW 4.6 mph - N/A   Clear
2:51 PM 62.1 °F - 6.1 °F 11% 30.20 in 10.0 mi Variable 5.8 mph - N/A   Clear
3:51 PM 61.0 °F - 7.0 °F 12% 30.17 in 10.0 mi ENE 4.6 mph - N/A   Clear
4:51 PM 60.1 °F - 7.0 °F 12% 30.16 in 10.0 mi East 3.5 mph - N/A   Clear
5:51 PM 55.9 °F - 6.1 °F 14% 30.18 in 10.0 mi SE 4.6 mph - N/A   Clear
6:51 PM 48.9 °F - 7.0 °F 18% 30.21 in 10.0 mi SSE 5.8 mph - N/A   Clear
7:51 PM 44.1 °F 40.8 °F 3.9 °F 19% 30.23 in 10.0 mi South 5.8 mph - N/A   Clear
8:51 PM 39.0 °F 34.0 °F 3.0 °F 22% 30.24 in 10.0 mi SSW 6.9 mph - N/A   Clear
9:51 PM 39.9 °F - 3.9 °F 22% 30.23 in 10.0 mi Calm Calm - N/A   Clear
10:51 PM 39.9 °F - 5.0 °F 23% 30.25 in 10.0 mi Calm Calm - N/A   Clear
11:51 PM 37.9 °F 30.9 °F 8.1 °F 29% 30.27 in 10.0 mi East 10.4 mph - N/A   Clear